Temperature
7 7 7 7 7 6 6 6 6 5 6 6 5 5 5 5 5 5 5 5 5 5 5 5 5 5 5 5 6 6 6 6 6 6 6 6 6 5
7 6 6 6 6 6 5 5 5 5 5 5 4 4 4 4 4 4 4 4 4 4 4 4 4 4 4 4 4 5 5 5 5 5 5 5 5 5
6 5 5 5 5 5 5 5 4 4 4 4 4 3 4 4 4 3 3 3 3 3 3 3 3 3 3 4 4 4 4 4 4 5 4 4 4 4
5 5 4 4 4 4 4 4 4 4 3 3 3 3 3 3 3 3 3 2 2 2 2 2 3 3 3 3 3 3 3 3 3 3 3 3 3 3
4 4 4 4 4 4 4 4 4 4 3 3 2 2 2 2 2 2 2 2 2 2 2 2 2 2 2 2 2 2 2 2 3 3 3 3 2 2
3 3 3 3 3 3 3 3 3 3 3 2 2 2 1 1 1 1 1 1 1 1 1 1 1 1 1 1 1 2 2 2 2 2 2 2 1 1
3 3 3 3 3 3 3 3 3 2 2 2 1 1 0 1 1 1 0 0 0 0 0 0 0 0 0 1 1 1 1 1 1 1 1 1 1 1
2 2 2 2 2 2 2 2 2 2 2 1 1 0 -0 -0 -0 -0 -0 -0 -1 -1 -0 -1 -1 -1 -0 -0 -0 -0 -0 -0 -0 -0 -0 -0 -0 -0
2 2 2 2 2 2 2 2 2 1 1 0 0 -0 -0 -1 -1 -1 -1 -1 -1 -1 -1 -1 -1 -1 -1 -1 -1 -1 -1 -1 -1 -1 -1 -1 -1 -1
2 2 2 2 2 1 1 1 1 1 0 -0 -0 -1 -1 -1 -1 -2 -2 -2 -2 -2 -2 -2 -2 -2 -2 -2 -2 -2 -2 -2 -2 -2 -2 -2 -2 -2
2 1 1 2 1 1 1 1 1 1 0 -0 -1 -1 -1 -2 -2 -2 -2 -2 -2 -3 -3 -3 -3 -3 -2 -2 -2 -3 -3 -3 -3 -3 -3 -3 -3 -3
2 1 1 1 1 1 1 1 1 0 -0 -1 -1 -1 -2 -2 -2 -2 -3 -3 -3 -4 -4 -4 -4 -4 -3 -3 -3 -3 -3 -3 -3 -3 -3 -3 -3 -3
1 1 1 1 1 1 0 0 0 -0 -1 -1 -1 -1 -2 -2 -3 -3 -3 -4 -4 -4 -5 -5 -5 -5 -5 -4 -3 -3 -3 -4 -4 -3 -3 -3 -3 -3
1 1 1 1 0 0 0 -0 -0 -1 -1 -1 -1 -2 -2 -3 -3 -4 -4 -4 -4 -5 -5 -5 -5 -5 -5 -5 -4 -3 -4 -4 -4 -4 -4 -4 -4 -4
1 0 0 0 0 0 -0 -0 -1 -1 -1 -1 -2 -2 -3 -3 -3 -4 -4 -4 -4 -5 -5 -6 -6 -6 -6 -6 -5 -4 -4 -4 -4 -4 -4 -4 -4 -4
0 0 -0 -0 -0 -0 -0 -1 -1 -1 -1 -2 -2 -2 -3 -3 -4 -4 -4 -4 -4 -4 -5 -5 -6 -6 -6 -6 -6 -5 -5 -5 -5 -5 -5 -5 -4 -4
-1 -0 -0 -0 -0 -0 -1 -1 -1 -1 -2 -2 -2 -3 -3 -3 -4 -4 -4 -5 -5 -5 -5 -5 -6 -6 -6 -6 -5 -5 -5 -5 -5 -6 -6 -5 -4 -5
-1 -0 -0 -0 -0 -1 -1 -1 -1 -2 -2 -2 -3 -3 -3 -4 -4 -4 -5 -5 -5 -5 -5 -6 -6 -7 -7 -6 -5 -5 -5 -6 -6 -6 -6 -6 -5 -5
-1 -0 -0 -0 -1 -1 -1 -2 -2 -2 -2 -3 -3 -3 -4 -4 -4 -5 -5 -5 -5 -6 -6 -6 -7 -8 -8 -7 -6 -6 -6 -6 -7 -7 -7 -7 -6 -5
-1 -1 -1 -1 -1 -2 -2 -2 -3 -3 -3 -3 -3 -4 -4 -4 -5 -5 -5 -6 -6 -6 -6 -6 -7 -8 -9 -9 -8 -6 -7 -7 -8 -7 -7 -7 -7 -6
-1 -1 -1 -2 -2 -2 -3 -3 -3 -3 -3 -3 -4 -4 -4 -5 -5 -5 -6 -6 -6 -7 -7 -6 -7 -8 -9 -10 -9 -6 -6 -7 -8 -8 -8 -8 -8 -7
-1 -1 -1 -2 -2 -3 -3 -3 -3 -4 -4 -4 -4 -4 -5 -5 -5 -6 -6 -6 -7 -7 -7 -7 -8 -8 -9 -10 -9 -8 -7 -7 -7 -8 -8 -8 -9 -9
-1 -2 -2 -2 -2 -3 -3 -3 -4 -4 -4 -4 -4 -5 -5 -5 -6 -6 -6 -7 -7 -7 -8 -8 -8 -9 -9 -9 -9 -9 -8 -7 -8 -7 -7 -7 -8 -8
Wind_Speed
3 3 3 3 3 3 3 2 1 2 1 3 3 5 7 8 10 10 10 12 13 13 13 13 14 13 13 11 10 10 8 4 1 7 10 13 14 14
2 3 3 3 3 3 3 3 2 0 0 2 3 3 5 6 8 8 8 10 12 12 12 12 13 13 13 13 12 10 9 8 4 3 6 9 11 11
3 4 4 4 3 3 3 3 3 2 0 2 2 2 3 4 5 6 7 8 9 11 11 11 11 12 12 13 13 12 10 9 8 6 3 3 6 7
4 4 4 4 5 4 4 4 3 3 1 1 2 2 3 3 3 3 5 6 7 9 10 10 10 10 10 11 11 12 11 10 9 8 6 4 3 3
5 5 5 5 5 4 4 4 3 3 2 2 1 1 1 2 2 3 3 4 5 7 9 9 9 9 8 9 9 9 9 9 8 8 7 7 5 2
6 6 6 5 5 4 4 4 4 3 3 2 2 1 1 1 2 2 3 3 3 5 8 7 7 7 7 7 8 8 8 7 7 6 5 4 4 3
5 6 6 6 7 5 4 4 4 3 3 2 2 1 1 2 2 2 3 3 2 4 4 5 5 4 4 5 6 7 6 6 5 4 4 3 3 3
4 3 3 4 5 6 6 6 6 4 3 2 1 1 1 2 2 3 3 3 3 4 4 4 3 2 3 3 4 5 5 5 5 4 4 4 4 5
3 2 2 3 3 2 3 5 5 6 5 2 2 2 2 2 2 2 2 2 2 3 3 3 3 3 4 4 4 4 5 5 5 5 5 5 5 6
2 2 2 1 2 2 2 3 2 2 3 3 3 2 2 2 1 1 1 2 4 2 1 1 3 3 4 7 3 2 4 5 5 5 6 6 6 7
3 2 2 1 1 1 1 1 1 0 2 1 1 1 2 2 3 2 2 3 2 2 2 1 3 4 4 3 2 3 5 6 6 7 7 7 8 8
3 3 3 2 2 1 0 0 1 0 0 1 2 3 3 2 1 1 1 1 1 2 2 2 3 4 4 3 4 6 7 7 8 8 9 9 9 8
3 3 3 4 3 3 2 1 2 1 1 2 2 2 1 1 1 2 2 2 2 3 1 2 2 2 2 4 4 4 5 6 7 9 10 11 11 10
3 3 4 5 5 4 3 4 4 2 1 2 2 2 1 1 1 1 1 2 4 6 6 3 2 2 2 3 4 4 4 7 7 7 9 11 12 12
4 6 6 6 5 4 6 7 4 2 2 3 3 3 2 2 1 1 3 5 7 9 11 10 6 4 4 5 5 5 5 4 6 5 5 6 7 8
5 6 8 8 7 6 6 5 4 4 3 3 3 2 2 2 2 2 2 3 4 5 7 10 10 6 6 8 8 9 7 5 4 4 5 7 11 12
5 3 3 3 4 4 5 5 5 4 5 3 3 3 3 3 3 3 3 3 3 4 5 3 8 10 10 8 8 10 10 9 9 8 7 9 8 10
8 4 6 6 6 6 6 5 5 6 5 5 5 4 4 4 4 3 3 4 5 6 6 5 3 3 4 7 12 11 10 9 8 7 7 9 11 8
8 6 7 7 7 6 6 6 6 6 5 5 5 5 5 5 4 4 5 5 6 7 6 5 4 4 7 8 6 11 8 6 6 7 7 8 11 9
7 8 8 8 7 7 7 6 6 6 5 5 6 6 6 5 5 6 6 6 7 7 7 6 5 7 8 7 6 5 9 8 7 9 9 8 10 15
9 9 9 8 8 7 7 7 7 7 6 6 6 7 7 6 7 7 7 10 9 7 8 8 7 11 7 5 8 8 6 13 14 10 7 8 10 11
10 10 9 9 8 8 8 7 7 7 8 8 7 7 7 7 8 9 8 8 8 8 9 8 6 6 6 8 12 13 12 10 14 20 21 19 9 6
10 10 9 9 9 8 8 9 9 8 8 8 8 8 7 7 8 8 8 8 8 9 9 8 6 6 8 10 11 12 14 13 11 11 12 19 24 29
Wind_Direction
25 32 40 35 29 19 12 13 242 248 235 92 79 42 37 45 33 32 27 28 32 36 39 41 40 36 33 34 34 32 27 18 223 209 199 196 196 198
46 59 53 40 37 29 22 23 28 333 227 84 78 52 36 34 32 32 26 31 32 36 41 40 38 37 35 36 36 34 33 34 51 143 172 188 191 193
62 73 66 55 51 34 31 38 39 33 81 92 83 56 45 25 16 22 30 35 31 36 39 38 35 35 37 38 39 39 40 42 53 72 93 154 174 172
72 75 70 67 56 40 40 43 37 29 57 94 74 55 47 17 6 13 24 30 31 32 33 34 34 36 36 36 35 36 36 38 43 49 59 73 123 157
71 73 69 71 62 47 44 38 23 28 51 86 81 65 51 23 8 6 17 17 21 27 23 24 27 30 32 33 34 34 33 32 33 36 40 44 46 52
68 65 62 62 58 46 47 29 25 31 47 75 78 59 42 11 29 6 357 355 360 26 13 8 13 21 26 32 33 28 24 22 20 20 25 29 26 12
80 76 73 73 67 59 58 38 35 41 50 60 60 48 31 32 18 5 4 342 0 25 2 345 350 2 16 32 30 17 7 1 356 353 348 337 323 307
98 91 97 77 72 67 64 59 58 64 61 53 52 63 37 43 30 20 18 13 339 350 5 324 338 353 356 29 11 2 354 346 336 323 312 305 293 280
122 118 104 101 77 50 53 57 55 61 59 65 71 53 58 35 42 16 13 353 282 292 359 320 334 344 344 355 357 357 346 335 322 312 302 291 283 276
149 141 129 112 101 69 55 50 47 67 60 58 79 64 66 51 46 314 277 311 297 301 54 316 324 329 329 330 321 349 344 338 328 312 295 286 279 276
173 152 133 128 132 78 60 19 356 298 140 109 53 351 335 338 351 23 14 17 339 333 17 18 330 330 321 318 331 343 333 325 320 312 300 289 282 278
180 180 183 181 198 221 70 287 284 283 66 282 293 284 269 271 323 104 126 118 301 305 359 31 4 360 332 314 331 334 328 320 316 312 305 295 286 283
186 193 199 200 215 244 259 234 243 242 298 281 280 276 254 197 101 87 97 145 202 253 344 45 353 337 294 301 310 310 314 310 312 309 306 299 289 277
198 198 198 203 221 247 254 253 261 273 280 280 276 266 236 187 119 57 343 294 253 255 278 287 248 252 284 290 287 302 310 302 298 295 298 300 295 288
203 210 210 218 232 249 254 251 251 239 247 253 254 245 212 182 171 269 281 279 275 271 268 255 234 247 246 257 275 289 306 295 286 282 287 285 283 285
221 226 232 237 235 240 250 252 228 220 224 232 246 234 198 191 214 227 254 285 291 287 269 248 234 228 251 257 265 273 274 276 292 288 285 281 278 272
196 196 205 217 223 226 230 230 221 223 234 227 233 236 236 233 234 223 227 240 258 281 292 272 243 232 236 250 264 265 268 268 268 274 276 280 275 266
208 206 214 219 223 225 226 225 220 219 218 218 223 226 232 236 241 237 232 239 257 267 272 274 270 276 271 257 239 253 260 264 267 267 264 274 281 270
219 216 220 223 224 222 220 220 223 219 211 211 217 222 226 231 234 240 242 248 256 260 261 257 247 248 271 281 275 235 235 254 266 268 263 265 276 280
219 222 225 226 224 221 220 221 223 220 213 215 218 222 222 226 235 240 240 244 254 261 264 255 241 237 248 260 270 272 244 247 263 271 274 274 275 280
222 225 225 224 223 221 220 218 217 219 217 216 221 223 223 226 236 240 242 252 255 256 259 260 250 255 251 246 263 266 257 254 256 258 263 273 280 281
224 225 224 222 222 221 219 216 219 222 221 223 225 224 224 226 234 238 241 245 249 251 258 264 257 257 244 252 263 274 283 279 272 271 266 260 260 262
226 225 223 221 221 220 218 218 220 225 223 223 225 226 225 229 233 237 240 243 249 254 259 266 263 254 255 257 265 272 277 283 286 282 272 266 262 262
Height
1514 1513 1513 1513 1513 1513 1514 1514 1515 1515 1515 1514 1514 1513 1513 1512 1511 1510 1509 1508 1507 1506 1506 1505 1505 1504 1504 1504 1503 1504 1504 1505 1506 1508 1511 1512 1515 1518
1509 1509 1509 1509 1509 1509 1509 1509 1510 1511 1512 1511 1511 1510 1510 1509 1508 1507 1506 1505 1504 1504 1503 1503 1502 1502 1501 1501 1501 1501 1501 1502 1503 1504 1506 1508 1510 1513
1505 1505 1505 1505 1505 1505 1505 1505 1506 1507 1507 1508 1507 1507 1506 1506 1505 1504 1503 1502 1502 1501 1501 1500 1500 1499 1499 1499 1498 1498 1499 1499 1500 1501 1503 1504 1506 1509
1502 1502 1502 1502 1502 1502 1502 1502 1502 1503 1504 1504 1504 1503 1503 1502 1502 1501 1500 1500 1499 1499 1498 1498 1497 1497 1497 1496 1496 1496 1497 1497 1498 1499 1500 1502 1503 1505
1499 1500 1500 1500 1499 1499 1499 1499 1500 1500 1500 1500 1500 1500 1500 1499 1499 1498 1498 1497 1497 1496 1495 1495 1495 1494 1494 1494 1494 1494 1494 1495 1495 1496 1497 1498 1500 1501
1497 1497 1497 1498 1497 1497 1497 1497 1497 1497 1497 1497 1497 1497 1497 1496 1496 1495 1495 1494 1494 1493 1493 1492 1492 1492 1491 1491 1491 1491 1492 1492 1492 1493 1494 1495 1496 1497
1495 1495 1496 1496 1496 1496 1496 1496 1495 1495 1495 1495 1495 1494 1494 1494 1493 1492 1492 1492 1491 1491 1490 1490 1489 1489 1489 1488 1488 1488 1488 1488 1489 1489 1490 1491 1492 1493
1494 1494 1494 1494 1494 1494 1494 1494 1493 1493 1493 1493 1492 1492 1492 1491 1491 1490 1490 1489 1488 1489 1488 1488 1487 1486 1486 1485 1485 1485 1485 1485 1485 1485 1486 1486 1487 1488
1492 1492 1492 1492 1492 1492 1492 1492 1492 1491 1491 1491 1490 1490 1490 1489 1489 1488 1487 1487 1486 1486 1485 1485 1484 1484 1483 1482 1482 1482 1481 1481 1481 1481 1482 1482 1483 1483
1490 1490 1491 1491 1491 1491 1490 1490 1490 1490 1489 1489 1489 1488 1488 1487 1487 1486 1485 1485 1484 1484 1483 1483 1482 1481 1481 1480 1479 1479 1478 1478 1478 1478 1478 1478 1478 1479
1489 1489 1489 1489 1489 1489 1489 1488 1488 1488 1488 1487 1487 1486 1486 1485 1484 1484 1483 1483 1482 1481 1481 1480 1479 1478 1478 1477 1476 1476 1476 1475 1475 1475 1475 1475 1475 1475
1486 1487 1487 1487 1487 1487 1487 1486 1486 1486 1486 1485 1485 1484 1484 1483 1482 1482 1481 1480 1479 1479 1478 1478 1476 1476 1475 1474 1474 1474 1473 1472 1472 1471 1471 1471 1471 1471
1484 1484 1485 1485 1485 1485 1485 1484 1484 1484 1483 1483 1482 1481 1481 1480 1480 1479 1478 1478 1477 1476 1476 1475 1474 1473 1472 1471 1470 1470 1469 1469 1468 1467 1467 1466 1466 1466
1482 1482 1482 1482 1482 1482 1482 1482 1482 1481 1481 1480 1479 1479 1478 1477 1477 1476 1475 1475 1474 1474 1473 1472 1471 1470 1468 1466 1465 1465 1465 1464 1463 1462 1462 1462 1461 1461
1479 1479 1479 1479 1479 1479 1479 1479 1479 1478 1478 1477 1476 1476 1475 1474 1473 1472 1472 1471 1470 1470 1469 1468 1467 1466 1465 1463 1461 1460 1459 1459 1458 1457 1457 1456 1455 1455
1475 1475 1476 1476 1476 1476 1476 1476 1475 1475 1474 1474 1473 1472 1471 1471 1470 1469 1468 1467 1466 1466 1465 1464 1463 1462 1460 1459 1457 1455 1454 1453 1453 1452 1450 1449 1449 1449
1471 1471 1471 1472 1472 1472 1472 1472 1471 1471 1470 1470 1469 1468 1467 1466 1466 1465 1463 1462 1461 1460 1460 1459 1458 1456 1455 1454 1451 1450 1449 1448 1447 1446 1444 1442 1442 1442
1466 1466 1466 1467 1467 1467 1467 1467 1467 1466 1466 1465 1464 1464 1463 1462 1461 1460 1459 1458 1456 1455 1455 1454 1453 1451 1449 1448 1447 1444 1443 1442 1441 1440 1438 1436 1434 1435
1460 1460 1461 1461 1462 1462 1462 1462 1462 1461 1461 1460 1459 1459 1458 1457 1456 1455 1454 1453 1451 1450 1449 1448 1447 1446 1444 1441 1440 1440 1438 1436 1435 1434 1432 1430 1427 1426
1454 1454 1455 1456 1456 1456 1456 1456 1456 1456 1455 1454 1454 1453 1452 1451 1450 1449 1448 1447 1446 1445 1444 1443 1442 1441 1439 1437 1433 1432 1433 1431 1429 1427 1425 1423 1421 1419
1448 1448 1449 1450 1450 1450 1450 1450 1449 1449 1449 1448 1448 1447 1446 1445 1444 1443 1443 1441 1440 1439 1437 1437 1436 1435 1433 1431 1427 1424 1425 1425 1422 1420 1418 1415 1413 1410
1441 1441 1442 1442 1443 1443 1443 1443 1442 1442 1442 1441 1441 1440 1440 1439 1438 1437 1436 1435 1434 1433 1431 1430 1430 1428 1427 1424 1420 1418 1416 1416 1415 1414 1412 1410 1408 1403
1433 1434 1434 1434 1435 1435 1435 1435 1435 1435 1435 1434 1434 1433 1433 1432 1431 1431 1430 1429 1427 1426 1425 1423 1422 1421 1419 1417 1414 1411 1409 1408 1406 1404 1403 1403 1401 1398